[Date Prev][Date Next][Thread Prev][Thread Next][Date Index][Thread Index]

[jamsat-news:843] jas2info #89



=========================   最新情報   ==============================

        Last updated :Sat.12-June.-98 18:30 (JST) #89
====================================================================   
     衛星情報 FOシリーズの軌道要素、テレメトリ、QSOの状況等をま
   とめてみました.

  1)FO−29(ふじ3号)は6月12日 (土)の16:58(JST)の
     パスではJAアナログモードで運用されていました.
         
  ■ 軌道要素1:「jamsatーkeps:703」より
                 SB KEPS @ AMSAT  $ORB98163.N
                 2Line Orbital Elements 98163.AMSAT

  HR AMSAT ORBITAL ELEMENTS FOR AMATEUR SATELLITES IN NASA FORMAT
  FROM WA5QGD FORT WORTH,TX June 12, 1998
  SEND SUBSCRIBE/UNSUBSCRIBE TO listserv@amsat.org ONLY
  BID: ORB98163.N

  DECODE 2-LINE ELSETS WITH THE FOLLOWING KEY:
  1 AAAAAU 00  0  0 BBBBB.BBBBBBBB  .CCCCCCCC  00000-0  00000-0 0  DDDZ
  2 AAAAA EEE.EEEE FFF.FFFF GGGGGGG HHH.HHHH III.IIII JJ.JJJJJJJJKKKKKZ
  KEY: A-CATALOGNUM B-EPOCHTIME C-DECAY D-ELSETNUM E-INCLINATION F-RAAN
  G-ECCENTRICITY H-ARGPERIGEE I-MNANOM J-MNMOTION K-ORBITNUM Z-CHECKSUM
  TO ALL RADIO AMATEURS BT

  FO-29
  1 24278U 96046B   98162.03844682  .00000034  00000-0  72974-4 0 01878
  2 24278 098.5170 158.7595 0351623 336.0738 022.4393 13.52643428089632

 ■ 軌道要素2:「jamsatーkeps:704」より
                 SB KEPS @ AMSAT  $ORB98163.O
                 Orbital Elements  98163.OSCAR

 HR AMSAT ORBITAL ELEMENTS FOR OSCAR SATELLITES
 FROM WA5QGD FORT WORTH,TX June 12, 1998
 SEND SUBSCRIBE/UNSUBSCRIBE TO listserv@amsat.org ONLY
 BID: ORB98163.O
 TO ALL RADIO AMATEURS BT

  Satellite: FO-29
  Catalog number: 24278
  Epoch time:      98162.03844682
  Element set:    0187
  Inclination:      098.5170 deg
  RA of node:       158.7595 deg
  Eccentricity:    0.0351623
  Arg of perigee:   336.0738 deg
  Mean anomaly:     022.4393 deg
  Mean motion:   13.52643428 rev/day
  Decay rate:        3.4e-07 rev/day^2
  Epoch rev:           08963
  Checksum:              336
 -----------------------------------------------------------
  1 )FO−29(ふじ3号)の 6月12日(土)はJAアナログモードで
     運用され、ビーコン波にのったテレメトリの一部分は次のようにな
     っていました.

  AS8994C 12June98
  JST   16:58 - 17:15 (熊本)


                                          
  HI HI AE C7 88 55 00 E2          09  5 8A 5E 60 93 91 B0 88 9F 9F A6 A4 9E 
  HI HI AE C7 88 55 00 E2 9B D2    65 OA E4 6C 60 93 91 B0 90 9F 9F A6 A4 9E 
  HI HI AE C7 88 55 00 E2 4D C2 07             6O 93 91 B0 91 8F 9F A6 A3 9E  
                               
  2 ) JDディジタルテレメトリの換算値例
	FO−29(ふじ3号)	
       (上記テレメトリの2行目を換算)
					
 テレメトリ   内   容          換算値  単位
 4A	太陽電池発生電流=	1058.8	mA
 4B	B充放電電流	=	-118.4	mA
 4C	B端子電圧	=	  15.8	V
 4D	B中間端子電圧	=	   7.0	V
 5A	バス電圧	=	  17.3	V
 5B	JTA送信電力	=	 837.9	mW
 5C 	構体温度1	=	  20.1	℃
 5D	構体温度2	=	  20.1	℃
 6A	構体温度3	=	  17.4	℃
 6B	構体温度4	=	  18.2	℃
 6C	Bセル温度	=	  20.5	℃
 
 
   *計算処理は OFFICE 97 を使用.

 ==========================================================================  
  3)FO−20(ふじ 2号)のCWテレメトリは5月8日(土)のパスでも切れ
    目の無い連続音になっいましたが,アナログ QSOは通常どうり行われております.
 -------------------------------------------------------------------------- 
 
 ■ 軌道要素1 :出典は「ふじ3号」に同じ.
 
  FO-20
  1 20480U 90013C   98162.21985103 -.00000011  00000-0  57707-4 0   581
  2 20480  99.0709  61.8536 0539963 284.8684  69.3231 12.83244033390752
   
  ■ 軌道要素2 :出典は「ふじ3号」に同じ. 
  
  Satellite: FO-20
  Catalog number: 20480
  Epoch time:      98162.21985103
  Element set:      58
  Inclination:       99.0709 deg
  RA of node:        61.8536 deg
  Eccentricity:    0.0539963
  Arg of perigee:   284.8684 deg
  Mean anomaly:      69.3231 deg
  Mean motion:   12.83244033 rev/day
  Decay rate:       -1.1e-07 rev/day^2
  Epoch rev:           39075
  Checksum:              314

    =========================   JARL運用情報   =========================

  *JARL のホームページに運用の予定変更が記載されていましたのでご紹介します.

        ■ ふじ3号/FO−29 ■  
  QTC ! 
  太陽活動の活性化に伴い衛星のコンピュータメモリーに2bitエラーが頻繁に発生し
  ています。このためソフトウエアーのハングアップや誤動作が発生しています。
  2bitエラーの発生頻度を調査するためにしばらくの間、アナログ系運用を行います。
  衛星のユーザーのみなさまでCWテレメトリの2Bの値が00から変化していることを確
  認された方はJARL技術課まで連絡をお願いいたします.

   CWテレメトリの2Bの位置はHI HIから5つ目の2桁の数値です。通常は00を示し
  ています。
 連絡先 : lab@jarl.or.jp

 以後の運用に付きましては6月20日18時頃にお知らせいたします。

   6月8日に2bitエラーを確認しました。9日にリセットを行いエラーの発生率をチェックしてい
  ます。
        ■ ふじ2号/FO−20 ■      
            「ふじ2号」 現況                                                                                               
   JAS-1b/FO-20(ふじ2号)の不具合発生について
    JAS-1b(ふじ2号)のCWテレメトリ信号に,1997年10月12日12時
 (JST)の日本上空通過時,3桁の数字が繰り返されるはずが3個の長音の
  繰り返しとなっているという異常が発見されました。この不具合は次の通過時
  からは回復していましたが13日15時20分の通過時に再び観測されました。
  衛星のアナログ系中継モード動作は異常が無く,正常時のテレメトリ内容からは
  衛星の動作に異常は認められません。従って,直ちに衛星のミッションに影響す
  ることは無いと予想されますので,当面はアナログ系中継モードを継続します。
  衛星は既に打ち上げてから7年8ヶ月を経ておりますので,今後は監視を強化す
  る予定です。アマチュア各位のレポートをお待ちします.   
  
  以上  http://www.jarl.or.jp/Japanese/3_Fuji/jr1nvu.htm  より.
                                           
   =============   JAS-2 (ふじ3号)と現在までの情報   ===========  
  A.電話によるふじ3号の運用情報
      社団法人日本アマチュア連盟によるサービス
           TEL .   03− 3942 − 1000
  B.アマチュア無線FAXサービス
      JARLによるふじ3号の軌道情報(オービットカレンダー)
         FAX No.  03− 3233 −0055
  C.WWWブラウザで情報を簡単に見れる人のためにJAS−2
     ふじ3号の衛星としての運用されるまでの名前)の概要、打ち上げ
     までの状況、運用中における状況を説明したホームページを紹介し
     ておきます.
    1)社団法人日本アマチュア無線連盟(JARL)のホームページ

          http://www.jarl.or.jp/Japanese/3_Fuji/jr1nvu.htm
 
    2)宇宙開発事業団(NASDA)ホームページ 
          http://www.nasda.go.jp/
         打上げ衛星 :地球観測プラットフォーム技術衛星(ADEOS) 
                       アマチュア衛星3号(JAS-2)
          http://yyy.tksc.nasda.go.jp/Home/Press/Press-j/jas-2_j.html        

  D.JAMSATによる軌道情報の活用
        JAMSATのホームページまたはjamsat−kepsの軌道要素より
      衛星の軌道情報を得る.
     JAMSATホームページ
               URL    http://www.jamsat.or.jp
       上記ホームページでは各地で行われるアマチュア通信衛星に関する
      ミューティングのお知らせや世界のアマチュア衛星に関する情報が
      満載されています.
   
 =========================================================================
       JAMSATのメンバーのご協力によりJH6MME(高山 秀造)が
    執筆・編集を担当しております.ご指摘の意見、疑問やこのようにしたら
    というアイデアがありましたら小さなことでもかまいませんので気軽に下
    記アドレスまでご連絡ください.jamsat−newsからjas2
    infoへの転載をJH4PHW局坂井さんに担当して頂いております.
                    Eーmail : jh6mme@jamsat.or.jp : jh4phw@jamsat.or.jp
 ===============================   END  ===============================